{"data":{"norad_id":61019,"intl_designator":"2024-159J","name":"GEESAT-3 09","alt_names":[],"object_type":"PAYLOAD","status":"ACTIVE","operator":null,"country":"PRC","launch_date":"2024-09-05","launch_site_code":"TAISC","launch_vehicle":null,"mission":null,"orbit_class":"UNKNOWN","rcs_meters":null,"size_class":null,"mass_kg":null,"dimensions":null,"purposes":[],"wikipedia_slug":null,"has_3d_model":false,"image_url":null,"decayed_at":null,"tle_current":{"epoch":"2026-09-22T20:59:24.503424Z","epoch_age_seconds":86516,"freshness":"FRESH","line1":"1 61019U 24159J   26265.87458916  .00000989  00000+0  14308-3 0  9991","line2":"2 61019  49.9994 349.4764 0021409  76.2139 284.1180 14.84499117111289","mean_motion":14.84499117,"eccentricity":0.0021409,"inclination_deg":49.9994,"raan_deg":349.4764,"arg_perigee_deg":76.2139,"mean_anomaly_deg":284.118,"bstar":0.00014308,"rev_number":11128,"period_min":97.002415394498,"perigee_km":600.18654212695,"apogee_km":630.13043474934,"semimajor_km":6993.2954884381,"source":"CELESTRAK","updated_at":"2026-09-23T09:00:20.801035Z"}}}